Retour au catalogue

STARLINK-35714

ActifCommunicationsVLEO
NORAD 66214·PAYLOAD·🇺🇸 United States

Lancé Oct 28, 2025 depuis Vandenberg Space Force Base

Loading…

Prochains Passages (prochaines 24 heures)

TLE

FraisSource: CelesTrak SupGP

Époque: Sep 14, 2026, 23:07 UTC

1 66214C 25244J   26257.96368056  .00039398  00000+0  11643-2 0  2576
2 66214  53.1587  69.2718 0001279  87.1360 111.0312 15.34363881    19

Suivez STARLINK-35714 en temps réel avec AllMySat

Download on the App Store